This is the latest recevied weather packets stored in our database for station/object N4DBJ. If no packets are shown the sender has not sent any weather packets the latest 10 day(s).
| Time | Temp. | Humidity | Pressure | Rain* | Wind** | Luminosity | Snow |
|---|---|---|---|---|---|---|---|
| 1777947604 | 19.44° C | 62% | 1007.3 hPa | 0 mm | - | 0 W/m² | - |
| 1777947301 | 19.44° C | 61% | 1007.4 hPa | 0 mm | - | 0 W/m² | - |
| 1777946996 | 18.89° C | 62% | 1007.2 hPa | 0 mm | - | 0 W/m² | - |
| 1777946692 | 18.89° C | 63% | 1007.3 hPa | 0 mm | - | 0 W/m² | - |
| 1777946389 | 18.33° C | 64% | 1007.3 hPa | 0 mm | - | 0 W/m² | - |
| 1777946086 | 18.33° C | 66% | 1007.2 hPa | 0 mm | - | 0 W/m² | - |
| 1777945783 | 17.78° C | 67% | 1007.2 hPa | 0 mm | - | 0 W/m² | - |
| 1777945480 | 17.78° C | 68% | 1007.2 hPa | 0 mm | - | 0 W/m² | - |
| 1777945177 | 17.78° C | 69% | 1007.2 hPa | 0 mm | - | 0 W/m² | - |
| 1777944874 | 18.33° C | 66% | 1007.3 hPa | 0 mm | - | 0 W/m² | - |
| 1777944572 | 18.33° C | 66% | 1007.2 hPa | 0 mm | - | 0 W/m² | - |
| 1777944270 | 18.89° C | 67% | 1007.1 hPa | 0 mm | - | 0 W/m² | - |
| 1777943966 | 18.89° C | 64% | 1007.2 hPa | 0 mm | - | 0 W/m² | - |
| 1777943662 | 19.44° C | 61% | 1007.1 hPa | 0 mm | - | 0 W/m² | - |
| 1777943359 | 20° C | 59% | 1007.3 hPa | 0 mm | - | 0 W/m² | - |
| 1777943055 | 20.56° C | 59% | 1007.1 hPa | 0 mm | - | 0 W/m² | - |
| 1777942751 | 21.11° C | 56% | 1007 hPa | 0 mm | - | 0 W/m² | - |
| 1777942448 | 21.67° C | 54% | 1007.1 hPa | 0 mm | - | 0 W/m² | - |
| 1777942145 | 21.11° C | 54% | 1007 hPa | 0 mm | - | 0 W/m² | - |
| 1777941842 | 21.67° C | 55% | 1006.9 hPa | 0 mm | - | 0 W/m² | - |
| 1777941539 | 22.22° C | 54% | 1007 hPa | 0 mm | - | 1 W/m² | - |
| 1777941236 | 22.22° C | 51% | 1007.1 hPa | 0 mm | - | 3 W/m² | - |
| 1777940932 | 22.78° C | 50% | 1007 hPa | 0 mm | - | 4 W/m² | - |
| 1777940629 | 22.78° C | 49% | 1007.2 hPa | 0 mm | - | 7 W/m² | - |
| 1777940328 | 23.33° C | 49% | 1007 hPa | 0 mm | - | 10 W/m² | - |
* Rain latest hour (hover to see other rain measurements)
** Current wind speed in m/s (hover to see current wind gust speed)